Simultaneous Nadir Overpasses (SNOs) Predictions

Prediction of SNOs between METOP-A and TERRA Satellite Orbit:

Table of predicted SNOs for the next 14.0 days since TLE Epoch: 11/4/2017
Index Date (METOP-A) Time (METOP-A) Lat,Lon (METOP-A) SZA (METOP-A ) Date (TERRA) Time (TERRA) Lat,Lon (TERRA) SZA (TERRA ) Distance(km) Time Diff (sec)
1 11/04/2017 14:48:10 -81.29,-178.74 80.47 11/04/2017 14:49:24 -81.10,-178.25 80.51 23.14 74
2 11/04/2017 15:38:36 81.37, -5.51 100.27 11/04/2017 15:38:37 81.38, -5.65 100.26 2.41 1
3 11/04/2017 16:29:16 -81.38, 162.00 79.70 11/04/2017 16:28:04 -81.38, 161.91 79.75 1.47 72
4 11/07/2017 10:22:15 -81.37,-107.28 79.02 11/07/2017 10:23:26 -81.37,-107.16 78.97 2.03 71
5 11/07/2017 11:12:55 81.37, 60.42 101.04 11/07/2017 11:12:52 81.37, 60.57 101.06 2.45 3
6 11/10/2017 05:56:33 -81.37, -40.54 78.18 11/10/2017 05:57:41 -81.37, -40.58 78.16 0.67 68
7 11/10/2017 06:47:13 81.37, 127.12 101.87 11/10/2017 06:47:07 81.38, 127.12 101.87 0.22 6
8 11/13/2017 01:30:52 -81.37, 25.78 77.45 11/13/2017 01:31:56 -81.38, 25.96 77.39 2.98 64
9 11/13/2017 02:21:31 81.38,-166.21 102.65 11/13/2017 02:21:22 81.38,-166.37 102.63 2.65 9
10 11/15/2017 21:05:09 -81.37, 92.47 76.71 11/15/2017 21:06:10 -81.38, 92.44 76.68 0.89 61




NCC Satellite Simultaneous Nadir Overpasses (SNOs) Prediction Service
